Location: Asheville, NC
(35.6000°N, 82.5500°W)
Time: 07:35:19
(UTC-04:00)

Iridium 28 - Pass Details

Date: 04 January 2018
Orbit: 771 x 775 km, 86.4° (Epoch: 18 July)

Event Time Altitude Azimuth Distance (km) Brightness Sun altitude
Rises 19:14:16 0° 349° (N) 3,255 8.7 -20.5°
Reaches altitude 10° 19:16:43 10° 342° (NNW) 2,324 8.0 -21.0°
Maximum altitude 19:21:33 41° 274° (W) 1,119 6.8 -22.0°
Drops below altitude 10° 19:26:22 10° 205° (SSW) 2,311 8.4 -22.9°
Sets 19:28:49 0° 198° (SSW) 3,234 9.1 -23.4°
